| time (UTC) | temp C | wind direction | speed KPH | gust KPH | rain 1hr cm | rain 24hr cm | rain mn cm | humidity % | barometer mb |
| 20260901035015 | 13 | 241 | 1.6 | 4.8 | 0.00 | 0.05 | 0.00 | 93 | 1020.4 |
| 20260901034513 | 13 | 241 | 1.6 | 4.8 | 0.00 | 0.05 | 0.00 | 92 | 1020.4 |
| 20260901034013 | 13 | 241 | 1.6 | 8.0 | 0.00 | 0.05 | 0.00 | 92 | 1020.4 |
| 20260901033513 | 13 | 241 | 3.2 | 8.0 | 0.00 | 0.05 | 0.00 | 92 | 1020.3 |
| 20260901033013 | 13 | 241 | 1.6 | 6.4 | 0.00 | 0.05 | 0.00 | 92 | 1020.2 |
| 20260901032513 | 13 | 241 | 3.2 | 6.4 | 0.00 | 0.05 | 0.00 | 92 | 1020.3 |
| 20260901032017 | 13 | 242 | 1.6 | 4.8 | 0.00 | 0.05 | 0.00 | 92 | 1020.2 |
| 20260901031513 | 13 | 242 | 1.6 | 6.4 | 0.00 | 0.05 | 0.00 | 92 | 1020.1 |
| 20260901031011 | 13 | 242 | 3.2 | 6.4 | 0.00 | 0.05 | 0.00 | 93 | 1020.1 |
| 20260901030511 | 13 | 242 | 3.2 | 6.4 | 0.00 | 0.05 | 0.00 | 92 | 1020.1 |
| 20260901030011 | 13 | 243 | 3.2 | 8.0 | 0.00 | 0.05 | 0.00 | 92 | 1020.1 |
| 20260901025511 | 13 | 243 | 3.2 | 8.0 | 0.00 | 0.25 | 0.00 | 92 | 1020.1 |
| 20260901025011 | 13 | 245 | 4.8 | 11.3 | 0.00 | 0.25 | 0.00 | 93 | 1020.2 |
| 20260901024511 | 13 | 247 | 4.8 | 8.0 | 0.00 | 0.25 | 0.00 | 93 | 1020.2 |
| 20260901024009 | 13 | 248 | 3.2 | 8.0 | 0.00 | 0.25 | 0.00 | 92 | 1020.0 |
| 20260901023509 | 13 | 248 | 3.2 | 4.8 | 0.00 | 0.25 | 0.00 | 93 | 1020.0 |
| 20260901023010 | 13 | 248 | 1.6 | 4.8 | 0.00 | 0.25 | 0.00 | 93 | 1019.9 |
| 20260901022512 | 13 | 248 | 1.6 | 4.8 | 0.00 | 0.25 | 0.00 | 93 | 1020.0 |
| 20260901022009 | 13 | 248 | 1.6 | 4.8 | 0.00 | 0.25 | 0.00 | 93 | 1019.9 |
| 20260901021512 | 13 | 248 | 1.6 | 3.2 | 0.00 | 0.25 | 0.00 | 93 | 1020.0 |
| 20260901021008 | 13 | 248 | 0.0 | 3.2 | 0.00 | 0.25 | 0.00 | 93 | 1020.0 |
| 20260901020509 | 12 | 248 | 0.0 | 3.2 | 0.00 | 0.25 | 0.00 | 93 | 1019.9 |
| 20260901020007 | 12 | 248 | 0.0 | 1.6 | 0.00 | 0.25 | 0.00 | 93 | 1019.9 |
| 20260901015508 | 12 | 248 | 0.0 | 1.6 | 0.00 | 0.41 | 0.00 | 93 | 1019.8 |
| 20260901015009 | 12 | 248 | 0.0 | 0.0 | 0.00 | 0.41 | 0.00 | 93 | 1019.7 |
| 20260901014516 | 12 | 248 | 0.0 | 1.6 | 0.00 | 0.41 | 0.00 | 93 | 1019.6 |
| 20260901014009 | 12 | 248 | 0.0 | 1.6 | 0.00 | 0.41 | 0.00 | 92 | 1019.7 |
| 20260901013505 | 12 | 248 | 0.0 | 1.6 | 0.00 | 0.41 | 0.00 | 93 | 1019.7 |
| 20260901013005 | 12 | 248 | 0.0 | 0.0 | 0.00 | 0.41 | 0.00 | 93 | 1019.6 |
| 20260901012504 | 12 | 248 | 0.0 | 0.0 | 0.00 | 0.41 | 0.00 | 92 | 1019.6 |
| 20260901012004 | 12 | 248 | 0.0 | 0.0 | 0.00 | 0.41 | 0.00 | 92 | 1019.6 |
| 20260901011504 | 12 | 248 | 0.0 | 1.6 | 0.00 | 0.41 | 0.00 | 92 | 1019.6 |
| 20260901011004 | 12 | 248 | 0.0 | 4.8 | 0.00 | 0.41 | 0.00 | 92 | 1019.6 |
| 20260901010503 | 12 | 248 | 1.6 | 4.8 | 0.00 | 0.41 | 0.00 | 92 | 1019.6 |
| 20260901010003 | 12 | 248 | 0.0 | 3.2 | 0.00 | 0.41 | 0.00 | 92 | 1019.5 |
| 20260901005504 | 12 | 248 | 0.0 | 0.0 | 0.00 | 0.66 | 0.00 | 92 | 1019.4 |
| 20260901005004 | 12 | 248 | 0.0 | 0.0 | 0.00 | 0.66 | 0.00 | 92 | 1019.5 |
| 20260901004502 | 12 | 248 | 0.0 | 0.0 | 0.00 | 0.66 | 0.00 | 92 | 1019.4 |
| 20260901004002 | 12 | 248 | 0.0 | 0.0 | 0.00 | 0.66 | 0.00 | 92 | 1019.4 |
| 20260901003502 | 12 | 248 | 0.0 | 0.0 | 0.00 | 0.66 | 0.00 | 92 | 1019.4 |
| 20260901003001 | 12 | 248 | 0.0 | 0.0 | 0.00 | 0.66 | 0.00 | 91 | 1019.4 |
| 20260901002602 | 12 | 248 | 0.0 | 0.0 | 0.00 | 0.66 | 0.00 | 91 | 1019.3 |
| 20260901002059 | 12 | 248 | 0.0 | 0.0 | 0.00 | 0.66 | 0.00 | 91 | 1019.3 |
| 20260901001608 | 12 | 248 | 0.0 | 0.0 | 0.00 | 0.66 | 0.00 | 91 | 1019.4 |
| 20260901001059 | 12 | 248 | 0.0 | 0.0 | 0.00 | 0.66 | 0.00 | 91 | 1019.3 |
| 20260901000558 | 13 | 248 | 0.0 | 0.0 | 0.00 | 0.66 | 0.00 | 91 | 1019.3 |
| 20260901000109 | 13 | 248 | 0.0 | 3.2 | 0.00 | 0.66 | 0.00 | 91 | 1019.3 |
| 20260831235601 | 13 | 248 | 0.0 | 3.2 | 0.00 | 0.71 | 0.00 | 91 | 1019.4 |
| 20260831235058 | 13 | 248 | 0.0 | 4.8 | 0.00 | 0.71 | 0.00 | 91 | 1019.4 |
| 20260831234618 | 13 | 248 | 1.6 | 4.8 | 0.00 | 0.71 | 0.00 | 91 | 1019.4 |
| 20260831234058 | 13 | 248 | 1.6 | 4.8 | 0.00 | 0.71 | 0.00 | 91 | 1019.3 |
| 20260831233600 | 13 | 248 | 1.6 | 4.8 | 0.00 | 0.71 | 0.00 | 91 | 1019.2 |
| 20260831233118 | 12 | 248 | 1.6 | 4.8 | 0.00 | 0.71 | 0.00 | 90 | 1019.4 |
| 20260831232555 | 13 | 248 | 0.0 | 3.2 | 0.00 | 0.71 | 0.00 | 91 | 1019.2 |
| 20260831232055 | 13 | 248 | 1.6 | 3.2 | 0.00 | 0.71 | 0.00 | 91 | 1019.4 |
| 20260831231555 | 13 | 248 | 1.6 | 3.2 | 0.00 | 0.71 | 0.00 | 90 | 1019.3 |
| 20260831231054 | 13 | 248 | 1.6 | 3.2 | 0.00 | 0.71 | 0.00 | 90 | 1019.3 |
| 20260831230556 | 13 | 248 | 0.0 | 3.2 | 0.00 | 0.71 | 0.00 | 90 | 1019.3 |
| 20260831230053 | 13 | 248 | 0.0 | 3.2 | 0.00 | 0.71 | 0.00 | 90 | 1019.3 |
| 20260831225552 | 13 | 248 | 0.0 | 3.2 | 0.00 | 0.71 | 0.00 | 90 | 1019.2 |
| 20260831225051 | 13 | 248 | 1.6 | 3.2 | 0.00 | 0.71 | 0.00 | 89 | 1019.3 |
| 20260831224550 | 13 | 248 | 0.0 | 0.0 | 0.00 | 0.71 | 0.00 | 89 | 1019.2 |
| 20260831224053 | 14 | 248 | 0.0 | 0.0 | 0.00 | 0.71 | 0.00 | 89 | 1019.2 |
| 20260831223548 | 14 | 248 | 0.0 | 0.0 | 0.00 | 0.71 | 0.00 | 89 | 1019.3 |
| 20260831223048 | 14 | 248 | 0.0 | 0.0 | 0.00 | 0.71 | 0.00 | 88 | 1019.2 |
| 20260831222551 | 14 | 248 | 0.0 | 0.0 | 0.00 | 0.71 | 0.00 | 88 | 1019.2 |
| 20260831222045 | 15 | 248 | 0.0 | 0.0 | 0.00 | 0.71 | 0.00 | 87 | 1019.2 |
| 20260831221545 | 15 | 248 | 0.0 | 1.6 | 0.00 | 0.71 | 0.00 | 87 | 1019.1 |
| 20260831221044 | 15 | 248 | 0.0 | 3.2 | 0.00 | 0.71 | 0.00 | 86 | 1019.2 |
| 20260831220544 | 15 | 248 | 0.0 | 3.2 | 0.00 | 0.71 | 0.00 | 86 | 1019.1 |
| 20260831220042 | 15 | 248 | 0.0 | 3.2 | 0.00 | 0.71 | 0.00 | 85 | 1019.1 |
| 20260831215541 | 16 | 248 | 0.0 | 3.2 | 0.00 | 0.71 | 0.71 | 85 | 1018.9 |
| 20260831215040 | 16 | 248 | 0.0 | 3.2 | 0.00 | 0.71 | 0.71 | 85 | 1018.9 |
| 20260831214539 | 16 | 248 | 0.0 | 1.6 | 0.00 | 0.71 | 0.71 | 85 | 1018.9 |
| 20260831214039 | 16 | 248 | 0.0 | 3.2 | 0.00 | 0.71 | 0.71 | 85 | 1018.8 |
| 20260831213542 | 16 | 248 | 1.6 | 3.2 | 0.00 | 0.71 | 0.71 | 86 | 1018.7 |
| 20260831213038 | 16 | 248 | 1.6 | 3.2 | 0.00 | 0.71 | 0.71 | 86 | 1018.8 |
| 20260831212540 | 16 | 248 | 0.0 | 4.8 | 0.00 | 0.71 | 0.71 | 86 | 1018.6 |
| 20260831212037 | 16 | 248 | 1.6 | 4.8 | 0.00 | 0.71 | 0.71 | 86 | 1018.7 |
| 20260831211538 | 16 | 248 | 1.6 | 4.8 | 0.00 | 0.71 | 0.71 | 86 | 1018.5 |
| 20260831211139 | 16 | 248 | 0.0 | 1.6 | 0.00 | 0.71 | 0.71 | 86 | 1018.6 |
| 20260831210536 | 16 | 248 | 0.0 | 3.2 | 0.00 | 0.71 | 0.71 | 87 | 1018.6 |
| 20260831210038 | 16 | 248 | 0.0 | 3.2 | 0.00 | 0.71 | 0.71 | 86 | 1018.5 |
| 20260831205537 | 16 | 248 | 0.0 | 3.2 | 0.00 | 0.71 | 0.71 | 86 | 1018.6 |
| 20260831205038 | 16 | 248 | 1.6 | 3.2 | 0.00 | 0.71 | 0.71 | 86 | 1018.4 |
| 20260831204536 | 16 | 248 | 0.0 | 0.0 | 0.00 | 0.71 | 0.71 | 86 | 1018.4 |
| 20260831204036 | 16 | 248 | 0.0 | 0.0 | 0.00 | 0.71 | 0.71 | 85 | 1018.3 |
| 20260831203535 | 16 | 248 | 0.0 | 0.0 | 0.00 | 0.71 | 0.71 | 84 | 1018.2 |
| 20260831203036 | 16 | 248 | 0.0 | 4.8 | 0.00 | 0.71 | 0.71 | 83 | 1018.3 |
| 20260831202534 | 16 | 248 | 0.0 | 4.8 | 0.00 | 0.71 | 0.71 | 82 | 1018.2 |
| 20260831202034 | 17 | 248 | 0.0 | 6.4 | 0.00 | 0.71 | 0.71 | 82 | 1018.2 |
| 20260831201542 | 17 | 248 | 3.2 | 6.4 | 0.00 | 0.71 | 0.71 | 83 | 1018.2 |
| 20260831201135 | 17 | 248 | 4.8 | 6.4 | 0.00 | 0.71 | 0.71 | 83 | 1018.1 |
| 20260831200531 | 16 | 246 | 1.6 | 8.0 | 0.00 | 0.71 | 0.71 | 83 | 1017.8 |
| 20260831200030 | 16 | 246 | 3.2 | 8.0 | 0.00 | 0.71 | 0.71 | 83 | 1017.8 |
| 20260831195535 | 16 | 248 | 0.0 | 1.6 | 0.00 | 0.71 | 0.71 | 83 | 1017.7 |
| 20260831195030 | 16 | 248 | 0.0 | 0.0 | 0.00 | 0.71 | 0.71 | 83 | 1017.6 |
| 20260831194530 | 16 | 248 | 0.0 | 0.0 | 0.00 | 0.71 | 0.71 | 83 | 1017.6 |
| 20260831194031 | 16 | 248 | 0.0 | 0.0 | 0.00 | 0.71 | 0.71 | 82 | 1017.7 |
| 20260831193529 | 16 | 248 | 0.0 | 0.0 | 0.00 | 0.71 | 0.71 | 81 | 1017.5 |
| 20260831193030 | 16 | 248 | 0.0 | 0.0 | 0.00 | 0.71 | 0.71 | 80 | 1017.4 |
| 20260831192527 | 17 | 248 | 0.0 | 3.2 | 0.00 | 0.71 | 0.71 | 79 | 1017.4 |
| 20260831192027 | 17 | 248 | 0.0 | 3.2 | 0.00 | 0.71 | 0.71 | 78 | 1017.3 |
| 20260831191527 | 17 | 248 | 0.0 | 1.6 | 0.00 | 0.71 | 0.71 | 78 | 1017.2 |
| 20260831191027 | 17 | 248 | 0.0 | 3.2 | 0.00 | 0.71 | 0.71 | 78 | 1017.2 |
| 20260831190526 | 17 | 248 | 0.0 | 4.8 | 0.00 | 0.71 | 0.71 | 77 | 1017.2 |
| 20260831190026 | 17 | 248 | 1.6 | 6.4 | 0.00 | 0.71 | 0.71 | 77 | 1017.0 |
| 20260831185526 | 17 | 248 | 3.2 | 16.1 | 0.00 | 0.71 | 0.71 | 77 | 1017.0 |
| 20260831185024 | 17 | 244 | 3.2 | 16.1 | 0.00 | 0.71 | 0.71 | 77 | 1017.0 |
| 20260831184525 | 17 | 257 | 3.2 | 9.7 | 0.00 | 0.71 | 0.71 | 78 | 1016.8 |
| 20260831184024 | 17 | 259 | 3.2 | 9.7 | 0.00 | 0.71 | 0.71 | 77 | 1016.8 |
| 20260831183524 | 17 | 260 | 3.2 | 9.7 | 0.00 | 0.71 | 0.71 | 77 | 1016.8 |
| 20260831183024 | 17 | 259 | 3.2 | 9.7 | 0.00 | 0.71 | 0.71 | 77 | 1016.7 |
| 20260831182524 | 17 | 257 | 3.2 | 9.7 | 0.00 | 0.71 | 0.71 | 77 | 1016.6 |
| 20260831182024 | 17 | 257 | 3.2 | 11.3 | 0.00 | 0.71 | 0.71 | 77 | 1016.5 |
| 20260831181524 | 17 | 254 | 1.6 | 19.3 | 0.00 | 0.71 | 0.71 | 77 | 1016.3 |
| 20260831181024 | 17 | 269 | 4.8 | 19.3 | 0.00 | 0.71 | 0.71 | 77 | 1016.3 |
| 20260831180523 | 17 | 265 | 1.6 | 9.7 | 0.00 | 0.71 | 0.71 | 78 | 1016.1 |
| 20260831180025 | 17 | 263 | 1.6 | 14.5 | 0.03 | 0.71 | 0.71 | 78 | 1016.2 |
| 20260831175522 | 17 | 261 | 1.6 | 14.5 | 0.03 | 0.71 | 0.71 | 78 | 1016.0 |
| 20260831175022 | 17 | 250 | 3.2 | 14.5 | 0.03 | 0.71 | 0.71 | 79 | 1016.1 |
| 20260831174522 | 18 | 265 | 1.6 | 11.3 | 0.03 | 0.71 | 0.71 | 79 | 1016.1 |
| 20260831174022 | 18 | 281 | 1.6 | 6.4 | 0.03 | 0.71 | 0.71 | 79 | 1016.2 |
| 20260831173522 | 18 | 295 | 1.6 | 6.4 | 0.03 | 0.71 | 0.71 | 78 | 1016.2 |
| 20260831173021 | 18 | 305 | 1.6 | 4.8 | 0.03 | 0.71 | 0.71 | 78 | 1015.9 |
| 20260831172519 | 18 | 304 | 1.6 | 4.8 | 0.03 | 0.71 | 0.71 | 78 | 1015.8 |
| 20260831172020 | 18 | 304 | 1.6 | 6.4 | 0.03 | 0.71 | 0.71 | 77 | 1015.7 |
| 20260831171523 | 18 | 275 | 3.2 | 14.5 | 0.03 | 0.71 | 0.71 | 76 | 1015.6 |
| 20260831171019 | 18 | 260 | 4.8 | 14.5 | 0.03 | 0.71 | 0.71 | 77 | 1015.5 |
| 20260831170518 | 19 | 306 | 3.2 | 22.5 | 0.03 | 0.71 | 0.71 | 76 | 1015.6 |
| 20260831170022 | 20 | 301 | 8.0 | 22.5 | 0.00 | 0.71 | 0.71 | 68 | 1015.4 |
| 20260831165517 | 20 | 255 | 12.9 | 25.7 | 0.00 | 0.71 | 0.71 | 66 | 1015.0 |
| 20260831165017 | 20 | 246 | 9.7 | 22.5 | 0.00 | 0.71 | 0.71 | 66 | 1014.7 |
| 20260831164520 | 20 | 255 | 12.9 | 24.1 | 0.00 | 0.71 | 0.71 | 66 | 1014.6 |
| 20260831164016 | 20 | 232 | 14.5 | 27.4 | 0.00 | 0.71 | 0.71 | 66 | 1014.7 |
| 20260831163516 | 20 | 252 | 14.5 | 29.0 | 0.00 | 0.71 | 0.71 | 66 | 1014.7 |
| 20260831163018 | 20 | 254 | 16.1 | 25.7 | 0.00 | 0.71 | 0.71 | 67 | 1014.7 |
| 20260831162516 | 20 | 254 | 9.7 | 24.1 | 0.00 | 0.71 | 0.71 | 69 | 1014.7 |
| 20260831162015 | 20 | 224 | 14.5 | 29.0 | 0.00 | 0.71 | 0.71 | 70 | 1014.6 |
| 20260831161519 | 20 | 221 | 14.5 | 29.0 | 0.00 | 0.71 | 0.71 | 69 | 1014.5 |
| 20260831161018 | 20 | 229 | 16.1 | 24.1 | 0.00 | 0.71 | 0.71 | 72 | 1014.1 |
| 20260831160515 | 21 | 214 | 14.5 | 27.4 | 0.00 | 0.71 | 0.71 | 73 | 1014.2 |
| 20260831160017 | 21 | 214 | 12.9 | 27.4 | 0.00 | 0.71 | 0.71 | 74 | 1014.2 |
| 20260831155515 | 21 | 198 | 11.3 | 27.4 | 0.00 | 0.71 | 0.71 | 75 | 1014.2 |
| 20260831155015 | 20 | 219 | 11.3 | 27.4 | 0.00 | 0.71 | 0.71 | 75 | 1014.3 |
| 20260831154515 | 20 | 205 | 12.9 | 24.1 | 0.00 | 0.71 | 0.71 | 77 | 1014.4 |
| 20260831154014 | 20 | 192 | 14.5 | 19.3 | 0.00 | 0.71 | 0.71 | 78 | 1014.5 |
| 20260831153515 | 19 | 210 | 9.7 | 20.9 | 0.00 | 0.71 | 0.71 | 79 | 1014.5 |
| 20260831153016 | 19 | 192 | 11.3 | 20.9 | 0.00 | 0.71 | 0.71 | 79 | 1014.6 |
| 20260831152514 | 19 | 171 | 12.9 | 24.1 | 0.00 | 0.71 | 0.71 | 79 | 1014.8 |
| 20260831152014 | 19 | 202 | 14.5 | 27.4 | 0.00 | 0.71 | 0.71 | 79 | 1014.7 |
| 20260831151519 | 19 | 218 | 14.5 | 35.4 | 0.00 | 0.71 | 0.71 | 79 | 1014.9 |
| 20260831151014 | 19 | 240 | 16.1 | 35.4 | 0.00 | 0.71 | 0.71 | 79 | 1014.8 |
| 20260831150514 | 19 | 235 | 17.7 | 32.2 | 0.00 | 0.71 | 0.71 | 80 | 1014.9 |
| 20260831150014 | 19 | 205 | 16.1 | 33.8 | 0.00 | 0.71 | 0.71 | 80 | 1014.8 |
| 20260831145514 | 20 | 237 | 16.1 | 30.6 | 0.00 | 0.71 | 0.71 | 79 | 1014.8 |
| 20260831145016 | 20 | 214 | 17.7 | 32.2 | 0.00 | 0.71 | 0.71 | 78 | 1014.6 |
| 20260831144513 | 20 | 194 | 19.3 | 33.8 | 0.00 | 0.71 | 0.71 | 78 | 1014.5 |
| 20260831144013 | 20 | 181 | 17.7 | 25.7 | 0.00 | 0.71 | 0.71 | 79 | 1014.4 |
| 20260831143513 | 19 | 234 | 14.5 | 40.2 | 0.00 | 0.71 | 0.71 | 79 | 1014.5 |
| 20260831143013 | 19 | 226 | 16.1 | 40.2 | 0.00 | 0.71 | 0.71 | 77 | 1014.4 |
| 20260831142512 | 20 | 217 | 17.7 | 35.4 | 0.00 | 0.71 | 0.71 | 77 | 1014.3 |
| 20260831142015 | 20 | 191 | 20.9 | 40.2 | 0.00 | 0.71 | 0.71 | 74 | 1014.4 |
| 20260831141512 | 20 | 227 | 24.1 | 40.2 | 0.00 | 0.71 | 0.71 | 69 | 1014.1 |
| 20260831141013 | 21 | 192 | 19.3 | 35.4 | 0.00 | 0.71 | 0.71 | 69 | 1014.1 |
| 20260831140512 | 21 | 218 | 20.9 | 35.4 | 0.00 | 0.71 | 0.71 | 67 | 1014.1 |
| 20260831140012 | 21 | 200 | 17.7 | 33.8 | 0.00 | 0.71 | 0.71 | 67 | 1014.1 |
| 20260831135512 | 21 | 215 | 17.7 | 29.0 | 0.00 | 0.71 | 0.71 | 66 | 1014.2 |
| 20260831135012 | 21 | 197 | 16.1 | 27.4 | 0.00 | 0.71 | 0.71 | 66 | 1014.0 |
| 20260831134521 | 21 | 224 | 16.1 | 25.7 | 0.00 | 0.71 | 0.71 | 67 | 1014.0 |
| 20260831134010 | 21 | 222 | 14.5 | 32.2 | 0.00 | 0.71 | 0.71 | 66 | 1014.0 |
| 20260831133510 | 22 | 200 | 16.1 | 32.2 | 0.00 | 0.71 | 0.71 | 66 | 1013.9 |
| 20260831133012 | 21 | 185 | 14.5 | 30.6 | 0.00 | 0.71 | 0.71 | 66 | 1014.1 |
| 20260831132513 | 21 | 191 | 14.5 | 30.6 | 0.00 | 0.71 | 0.71 | 66 | 1014.0 |
| 20260831132011 | 21 | 213 | 16.1 | 29.0 | 0.00 | 0.71 | 0.71 | 67 | 1014.1 |
| 20260831131510 | 21 | 208 | 17.7 | 30.6 | 0.00 | 0.71 | 0.71 | 66 | 1014.2 |
| 20260831131013 | 21 | 190 | 16.1 | 33.8 | 0.00 | 0.71 | 0.71 | 66 | 1014.3 |
| 20260831130510 | 21 | 207 | 19.3 | 33.8 | 0.00 | 0.71 | 0.71 | 66 | 1014.3 |
| 20260831130011 | 21 | 188 | 17.7 | 37.0 | 0.00 | 0.71 | 0.71 | 67 | 1014.4 |
| 20260831125509 | 22 | 253 | 22.5 | 37.0 | 0.00 | 0.71 | 0.71 | 65 | 1014.5 |
| 20260831125010 | 21 | 252 | 20.9 | 35.4 | 0.00 | 0.71 | 0.71 | 67 | 1014.5 |
| 20260831124510 | 21 | 216 | 16.1 | 35.4 | 0.00 | 0.71 | 0.71 | 67 | 1014.5 |
| 20260831124009 | 21 | 213 | 22.5 | 35.4 | 0.00 | 0.71 | 0.71 | 66 | 1014.6 |
| 20260831123509 | 21 | 235 | 12.9 | 35.4 | 0.00 | 0.71 | 0.71 | 69 | 1014.4 |
| 20260831123012 | 21 | 248 | 17.7 | 30.6 | 0.00 | 0.71 | 0.71 | 66 | 1014.5 |
| 20260831122509 | 21 | 221 | 16.1 | 32.2 | 0.00 | 0.71 | 0.71 | 68 | 1014.4 |
| 20260831122009 | 22 | 228 | 17.7 | 37.0 | 0.00 | 0.71 | 0.71 | 68 | 1014.4 |
| 20260831121509 | 22 | 235 | 24.1 | 37.0 | 0.00 | 0.71 | 0.71 | 66 | 1014.5 |
| 20260831121009 | 22 | 256 | 19.3 | 37.0 | 0.00 | 0.71 | 0.71 | 66 | 1014.5 |
| 20260831120511 | 21 | 234 | 20.9 | 40.2 | 0.00 | 0.71 | 0.71 | 66 | 1014.3 |
| 20260831120010 | 21 | 242 | 19.3 | 40.2 | 0.00 | 0.71 | 0.71 | 66 | 1014.4 |
| 20260831115510 | 21 | 200 | 22.5 | 37.0 | 0.00 | 0.71 | 0.71 | 66 | 1014.5 |
| 20260831115007 | 21 | 212 | 24.1 | 37.0 | 0.00 | 0.71 | 0.71 | 67 | 1014.5 |
| 20260831114508 | 21 | 216 | 19.3 | 35.4 | 0.00 | 0.71 | 0.71 | 68 | 1014.4 |
| 20260831114007 | 22 | 243 | 20.9 | 33.8 | 0.00 | 0.71 | 0.71 | 67 | 1014.4 |
| 20260831113507 | 22 | 198 | 19.3 | 35.4 | 0.00 | 0.71 | 0.71 | 67 | 1014.4 |
| 20260831113007 | 22 | 245 | 22.5 | 33.8 | 0.00 | 0.71 | 0.71 | 68 | 1014.3 |
| 20260831112506 | 22 | 223 | 19.3 | 27.4 | 0.00 | 0.71 | 0.71 | 67 | 1014.4 |
| 20260831112006 | 22 | 181 | 16.1 | 33.8 | 0.00 | 0.71 | 0.71 | 69 | 1014.6 |
| 20260831111505 | 22 | 241 | 20.9 | 32.2 | 0.00 | 0.71 | 0.71 | 67 | 1014.6 |
| 20260831111005 | 22 | 229 | 19.3 | 32.2 | 0.00 | 0.71 | 0.71 | 68 | 1014.6 |
| 20260831110505 | 21 | 168 | 20.9 | 37.0 | 0.00 | 0.71 | 0.71 | 69 | 1014.6 |
| 20260831110005 | 21 | 207 | 25.7 | 37.0 | 0.00 | 0.71 | 0.71 | 68 | 1014.6 |
| 20260831105504 | 22 | 240 | 24.1 | 33.8 | 0.00 | 0.71 | 0.71 | 67 | 1014.5 |
| 20260831105005 | 22 | 230 | 17.7 | 32.2 | 0.00 | 0.71 | 0.71 | 71 | 1014.5 |
| 20260831104507 | 21 | 254 | 16.1 | 30.6 | 0.00 | 0.71 | 0.71 | 71 | 1014.8 |
| 20260831104004 | 22 | 197 | 17.7 | 30.6 | 0.00 | 0.71 | 0.71 | 70 | 1014.7 |
| 20260831103502 | 22 | 184 | 14.5 | 29.0 | 0.00 | 0.71 | 0.71 | 71 | 1014.6 |
| 20260831103002 | 21 | 246 | 19.3 | 27.4 | 0.00 | 0.71 | 0.71 | 69 | 1014.7 |
| 20260831102502 | 21 | 250 | 17.7 | 30.6 | 0.00 | 0.71 | 0.71 | 71 | 1014.7 |
| 20260831102003 | 21 | 254 | 16.1 | 32.2 | 0.00 | 0.71 | 0.71 | 71 | 1014.8 |
| 20260831101502 | 21 | 217 | 20.9 | 37.0 | 0.00 | 0.71 | 0.71 | 71 | 1014.7 |
| 20260831101000 | 21 | 204 | 22.5 | 37.0 | 0.00 | 0.71 | 0.71 | 71 | 1014.8 |
| 20260831100559 | 21 | 209 | 24.1 | 30.6 | 0.00 | 0.71 | 0.71 | 71 | 1014.8 |
| 20260831095558 | 21 | 220 | 19.3 | 29.0 | 0.00 | 0.71 | 0.71 | 73 | 1014.8 |
| 20260831095057 | 21 | 222 | 12.9 | 32.2 | 0.00 | 0.71 | 0.71 | 77 | 1014.8 |
| 20260831094557 | 20 | 221 | 19.3 | 32.2 | 0.00 | 0.71 | 0.71 | 73 | 1014.8 |
| 20260831094056 | 20 | 234 | 14.5 | 29.0 | 0.00 | 0.71 | 0.71 | 75 | 1014.8 |
| 20260831093555 | 20 | 221 | 12.9 | 29.0 | 0.00 | 0.71 | 0.71 | 76 | 1014.7 |
| 20260831093058 | 20 | 261 | 16.1 | 22.5 | 0.00 | 0.71 | 0.71 | 77 | 1014.8 |
| 20260831092554 | 20 | 203 | 16.1 | 25.7 | 0.00 | 0.71 | 0.71 | 76 | 1014.8 |
| 20260831092055 | 20 | 216 | 14.5 | 24.1 | 0.00 | 0.71 | 0.71 | 77 | 1014.7 |
| 20260831091603 | 20 | 238 | 12.9 | 22.5 | 0.00 | 0.71 | 0.71 | 76 | 1014.7 |
| 20260831091054 | 20 | 210 | 16.1 | 22.5 | 0.00 | 0.71 | 0.71 | 75 | 1014.9 |
| 20260831090555 | 20 | 229 | 11.3 | 22.5 | 0.00 | 0.71 | 0.71 | 77 | 1014.8 |
| 20260831090053 | 20 | 248 | 14.5 | 24.1 | 0.00 | 0.71 | 0.71 | 76 | 1014.7 |
| 20260831085553 | 20 | 225 | 12.9 | 25.7 | 0.00 | 0.71 | 0.71 | 75 | 1014.7 |
| 20260831085051 | 20 | 178 | 12.9 | 25.7 | 0.00 | 0.71 | 0.71 | 78 | 1014.7 |
| 20260831084552 | 19 | 223 | 12.9 | 24.1 | 0.00 | 0.71 | 0.71 | 80 | 1014.6 |
| 20260831084049 | 19 | 254 | 11.3 | 24.1 | 0.00 | 0.71 | 0.71 | 80 | 1014.7 |
| 20260831083549 | 19 | 205 | 9.7 | 24.1 | 0.00 | 0.71 | 0.71 | 81 | 1014.7 |
| 20260831083055 | 18 | 228 | 9.7 | 25.7 | 0.00 | 0.71 | 0.71 | 81 | 1014.6 |
| 20260831082550 | 18 | 197 | 9.7 | 25.7 | 0.00 | 0.71 | 0.71 | 82 | 1014.6 |
| 20260831082051 | 18 | 159 | 11.3 | 25.7 | 0.00 | 0.71 | 0.71 | 83 | 1014.6 |
| 20260831081550 | 18 | 163 | 6.4 | 17.7 | 0.00 | 0.71 | 0.71 | 84 | 1014.7 |
| 20260831081050 | 18 | 177 | 9.7 | 17.7 | 0.00 | 0.71 | 0.71 | 84 | 1014.7 |
| 20260831080554 | 18 | 215 | 11.3 | 17.7 | 0.00 | 0.71 | 0.71 | 84 | 1014.6 |
| 20260831080049 | 18 | 209 | 11.3 | 27.4 | 0.00 | 0.71 | 0.71 | 84 | 1014.7 |
| 20260831075553 | 19 | 206 | 11.3 | 27.4 | 0.00 | 0.71 | 0.71 | 84 | 1014.7 |
| 20260831075048 | 19 | 170 | 14.5 | 20.9 | 0.00 | 0.71 | 0.71 | 84 | 1014.7 |
| 20260831074550 | 19 | 214 | 14.5 | 22.5 | 0.00 | 0.71 | 0.71 | 85 | 1014.8 |
| 20260831074048 | 18 | 201 | 12.9 | 22.5 | 0.00 | 0.71 | 0.71 | 87 | 1014.8 |
| 20260831073546 | 18 | 211 | 12.9 | 27.4 | 0.00 | 0.71 | 0.71 | 88 | 1014.8 |
| 20260831073045 | 18 | 198 | 12.9 | 27.4 | 0.00 | 0.71 | 0.71 | 88 | 1014.8 |
| 20260831072543 | 18 | 251 | 11.3 | 24.1 | 0.00 | 0.71 | 0.71 | 89 | 1014.8 |
| 20260831072045 | 18 | 202 | 14.5 | 24.1 | 0.00 | 0.71 | 0.71 | 89 | 1014.7 |
| 20260831071542 | 18 | 215 | 11.3 | 22.5 | 0.00 | 0.71 | 0.71 | 90 | 1014.7 |
| 20260831071042 | 18 | 215 | 12.9 | 20.9 | 0.00 | 0.71 | 0.71 | 90 | 1014.7 |
| 20260831070541 | 18 | 198 | 9.7 | 19.3 | 0.00 | 0.71 | 0.71 | 91 | 1014.7 |
| 20260831070045 | 18 | 205 | 8.0 | 19.3 | 0.00 | 0.71 | 0.71 | 92 | 1014.8 |
| 20260831065540 | 18 | 219 | 9.7 | 19.3 | 0.00 | 0.71 | 0.71 | 92 | 1014.8 |
| 20260831065040 | 17 | 179 | 11.3 | 19.3 | 0.00 | 0.71 | 0.71 | 92 | 1014.7 |
| 20260831064539 | 17 | 198 | 9.7 | 17.7 | 0.00 | 0.71 | 0.71 | 93 | 1014.7 |
| 20260831064040 | 17 | 205 | 8.0 | 19.3 | 0.00 | 0.71 | 0.71 | 93 | 1014.8 |
| 20260831063537 | 17 | 231 | 6.4 | 20.9 | 0.00 | 0.71 | 0.71 | 93 | 1014.8 |
| 20260831063038 | 17 | 185 | 11.3 | 20.9 | 0.00 | 0.71 | 0.71 | 94 | 1014.7 |
| 20260831062536 | 17 | 191 | 9.7 | 16.1 | 0.00 | 0.71 | 0.71 | 94 | 1014.7 |
| 20260831062036 | 17 | 219 | 9.7 | 14.5 | 0.00 | 0.71 | 0.71 | 94 | 1014.7 |
| 20260831061536 | 17 | 208 | 9.7 | 24.1 | 0.00 | 0.71 | 0.71 | 94 | 1014.7 |
| 20260831061034 | 16 | 259 | 9.7 | 24.1 | 0.00 | 0.71 | 0.71 | 94 | 1014.6 |
| 20260831060534 | 16 | 221 | 8.0 | 16.1 | 0.00 | 0.71 | 0.71 | 94 | 1014.5 |
| 20260831060034 | 16 | 242 | 8.0 | 14.5 | 0.00 | 0.71 | 0.71 | 94 | 1014.3 |
| 20260831055532 | 16 | 215 | 8.0 | 14.5 | 0.00 | 0.71 | 0.71 | 94 | 1014.3 |
| 20260831055034 | 16 | 219 | 8.0 | 16.1 | 0.00 | 0.71 | 0.71 | 94 | 1014.3 |
| 20260831054531 | 16 | 191 | 8.0 | 22.5 | 0.00 | 0.71 | 0.71 | 94 | 1014.0 |
| 20260831054033 | 16 | 231 | 12.9 | 20.9 | 0.00 | 0.71 | 0.71 | 94 | 1014.0 |
| 20260831053530 | 16 | 236 | 9.7 | 19.3 | 0.00 | 0.71 | 0.71 | 94 | 1013.9 |
| 20260831053030 | 16 | 207 | 11.3 | 24.1 | 0.00 | 0.71 | 0.71 | 94 | 1013.9 |
| 20260831052529 | 16 | 211 | 8.0 | 14.5 | 0.00 | 0.71 | 0.71 | 94 | 1013.7 |
| 20260831052028 | 16 | 229 | 6.4 | 16.1 | 0.00 | 0.71 | 0.71 | 94 | 1013.8 |
| 20260831051538 | 16 | 207 | 6.4 | 14.5 | 0.00 | 0.71 | 0.71 | 94 | 1013.6 |
| 20260831051028 | 16 | 223 | 4.8 | 12.9 | 0.00 | 0.71 | 0.71 | 94 | 1013.6 |
| 20260831050527 | 16 | 227 | 4.8 | 12.9 | 0.00 | 0.71 | 0.71 | 94 | 1013.7 |
| 20260831050031 | 16 | 209 | 6.4 | 12.9 | 0.00 | 0.71 | 0.71 | 94 | 1013.5 |
| 20260831045528 | 16 | 209 | 6.4 | 12.9 | 0.00 | 0.71 | 0.71 | 94 | 1013.5 |
| 20260831045028 | 16 | 179 | 6.4 | 12.9 | 0.00 | 0.71 | 0.71 | 94 | 1013.5 |
| 20260831044528 | 16 | 199 | 4.8 | 14.5 | 0.00 | 0.71 | 0.71 | 94 | 1013.5 |
| 20260831044028 | 16 | 219 | 6.4 | 12.9 | 0.00 | 0.71 | 0.71 | 94 | 1013.4 |
| 20260831043526 | 16 | 191 | 4.8 | 11.3 | 0.00 | 0.71 | 0.71 | 93 | 1013.3 |
| 20260831043026 | 16 | 194 | 6.4 | 12.9 | 0.00 | 0.71 | 0.71 | 93 | 1013.2 |
| 20260831042526 | 16 | 186 | 6.4 | 12.9 | 0.00 | 0.71 | 0.71 | 93 | 1013.2 |
| 20260831042026 | 16 | 197 | 4.8 | 12.9 | 0.00 | 0.71 | 0.71 | 93 | 1013.1 |
| 20260831041538 | 16 | 193 | 3.2 | 9.7 | 0.00 | 0.71 | 0.71 | 93 | 1013.1 |
| 20260831041026 | 16 | 194 | 4.8 | 12.9 | 0.00 | 0.71 | 0.71 | 93 | 1013.1 |
| 20260831040526 | 16 | 174 | 4.8 | 12.9 | 0.00 | 0.71 | 0.71 | 93 | 1013.0 |
| 20260831040036 | 16 | 189 | 4.8 | 11.3 | 0.03 | 0.71 | 0.71 | 93 | 1013.1 |
| 20260831035525 | 16 | 179 | 4.8 | 11.3 | 0.03 | 0.71 | 0.71 | 93 | 1013.0 |